Location: Passau
(48.5830°N, 13.4830°E)
Time: 19:41:38
(UTC+02:00)

S-56A Canister/Altair - Pass Details

Date: 22 May 2024
Orbit: 637 x 2489 km, 38.9° (Epoch: 15 June)

Event Time Altitude Azimuth Distance (km) Brightness Sun altitude
Rises 07:08:19 0° 224° (SW) 5,899 11.5 16.1°
Reaches altitude 10° 07:12:58 10° 216° (SW) 4,683 11.1 16.9°
Maximum altitude 07:23:27 33° 159° (SSE) 2,611 10.5 18.6°
Drops below altitude 10° 07:31:07 10° 100° (E) 3,398 12.5 19.8°
Sets 07:33:55 0° 90° (E) 4,127 12.8 20.3°
